Location: *
(47.2969°N, 10.2930°E)
Time: 03:27:40
(UTC+00:00)

SL-4 R/B - Pass Details

Date: 09 April 2020
Orbit: 428 x 666 km, 51.6° (Epoch: 06 June)

Event Time Altitude Azimuth Distance (km) Brightness Sun altitude
Rises 19:02:22 0° 259° (W) 2,397 6.3 -10.8°
Reaches altitude 10° 19:04:30 10° 264° (W) 1,524 5.3 -11.1°
Maximum altitude 19:07:50 55° 343° (NNW) 525 2.2 -11.7°
Drops below altitude 10° 19:11:14 10° 63° (ENE) 1,548 4.0 -12.2°
Enters shadow 19:11:30 - 64° (ENE) 1,657 4.1 -12.2°
